Probability
0 0 0 0 0 0 0 0 0 0 0 0 0 0 0 0 0 0 0 0 0 0 0 0 0 0 0 0 0 0 0 0 0 0 0 0 0 0 0 0 0 0 0 0 0 0 0 0 0
0 0 0 0 0 0 0 0 0 0 0 0 0 0 0 0 0 0 0 0 0 0 0 0 0 0 0 0 0 0 0 0 0 0 0 0 0 0 0 0 0 0 0 0 0 0 0 0 0
0 0 0 0 0 0 0 0 0 0 0 0 0 0 0 0 0 0 0 0 0 0 0 0 0 0 0 0 0 0 0 0 0 0 0 0 0 0 0 0 0 0 0 0 0 0 0 0 0
0 0 0 0 0 0 0 0 0 0 0 0 0 0 0 0 0 0 0 0 0 0 0 0 0 0 0 0 0 0 0 0 0 0 0 0 0 0 0 0 0 0 0 0 0 0 0 0 0
0 0 0 0 0 0 0 0 0 0 0 0 0 0 0 0 0 0 0 0 0 0 0 0 0 0 0 0 0 0 0 0 0 0 0 0 0 0 0 0 0 0 0 0 0 0 0 0 0
0 0 0 0 0 0 0 0 0 0 0 0 0 0 0 0 0 0 0 0 0 0 0 0 0 0 0 0 0 0 0 0 0 0 0 0 0 0 0 0 0 0 0 0 0 0 0 0 0
0 0 0 0 0 0 0 0 0 0 0 0 0 0 0 0 0 0 0 0 0 0 0 0 0 0 0 0 0 0 0 0 0 0 0 0 0 0 0 0 0 0 0 0 0 0 0 0 0
0 0 0 0 0 0 0 0 0 0 0 0 0 0 0 0 0 0 0 0 0 0 0 0 0 0 0 0 0 0 0 0 0 0 0 0 0 0 0 0 0 0 0 0 0 0 0 0 0
0 0 0 0 0 0 0 0 0 0 0 0 0 0 0 0 0 0 0 0 0 0 0 0 0 0 0 0 0 0 0 0 0 0 0 0 0 0 0 0 0 0 0 0 0 0 0 0 0
0 0 0 0 0 0 0 0 0 0 0 0 0 0 0 0 0 0 0 0 0 0 0 0 0 0 0 0 0 0 0 0 0 0 0 0 0 0 0 0 0 0 0 0 0 0 0 0 0
0 0 0 0 0 0 0 0 0 0 0 0 0 0 0 0 0 0 0 0 0 0 0 0 0 0 0 0 0 0 0 0 0 0 0 0 0 0 0 0 0 0 0 0 0 0 0 0 0
0 0 0 0 0 0 0 0 0 0 0 0 0 0 0 0 0 0 0 0 0 0 0 0 0 0 0 0 0 0 0 0 0 0 0 0 0 0 0 0 0 0 0 0 0 0 0 0 0
0 0 0 0 0 0 0 0 0 0 0 0 0 0 0 0 0 0 0 0 0 0 0 0 0 0 0 0 0 0 0 0 0 0 0 0 0 0 0 0 0 0 0 0 0 0 0 0 0
0 0 0 0 0 0 0 0 0 0 0 0 0 0 0 0 0 0 0 0 0 0 0 0 0 0 0 0 0 0 0 0 0 0 0 0 0 0 0 0 0 0 0 0 0 0 0 0 0
0 0 0 0 0 0 0 0 0 0 0 0 0 0 0 0 0 0 0 0 0 0 0 0 0 0 0 0 0 0 0 0 0 0 0 0 0 0 0 0 0 0 0 0 0 0 0 0 0
0 0 0 0 0 0 0 0 0 0 0 0 0 0 0 0 0 0 0 0 0 0 0 0 0 0 0 0 0 0 0 0 0 0 0 0 0 0 0 0 0 0 0 0 0 0 0 0 0
0 0 0 0 0 0 0 0 0 0 0 0 0 0 0 0 0 0 0 0 0 0 0 0 0 0 0 0 0 0 0 0 0 0 0 0 0 0 0 0 0 0 0 0 0 0 0 0 0
0 0 0 0 0 0 0 0 0 0 0 0 0 0 0 0 0 0 0 0 0 0 0 0 0 0 0 0 0 0 0 0 0 0 0 0 0 0 0 0 0 0 0 0 0 0 0 0 0
0 0 0 0 0 0 0 0 0 0 0 0 0 0 0 0 0 0 0 0 0 0 0 0 0 0 0 0 0 0 0 0 0 0 0 0 0 0 0 0 0 0 0 0 0 0 0 0 0
0 0 0 0 0 0 0 0 0 0 0 0 0 0 0 0 0 0 0 0 0 0 0 0 0 0 0 0 0 0 0 0 0 0 0 0 0 0 0 0 0 0 0 0 0 0 0 0 0
0 0 0 0 0 0 0 0 0 0 0 0 0 0 0 0 0 0 0 0 0 0 0 0 0 0 0 0 0 0 0 0 0 0 0 0 0 0 0 0 0 0 0 0 0 0 0 0 0
0 0 0 0 0 0 0 0 0 0 0 0 0 0 0 0 0 0 0 0 0 0 0 0 0 0 0 0 0 0 0 0 0 0 0 0 0 0 0 0 0 0 0 0 0 0 0 0 0
0 0 0 0 0 0 0 0 0 0 0 0 0 0 0 0 0 0 0 0 0 0 0 0 0 0 0 0 0 0 0 0 0 0 0 0 0 0 0 0 0 0 0 0 0 0 0 0 0
0 0 0 0 0 0 0 0 0 0 0 0 0 0 0 0 0 0 0 0 0 0 0 0 0 0 0 0 0 0 0 0 0 0 0 0 0 0 0 0 0 0 0 0 0 0 0 0 0
0 0 0 0 0 0 0 0 0 0 0 0 0 0 0 0 0 0 0 0 0 0 0 0 0 0 0 0 0 0 0 0 0 0 0 0 0 0 0 0 0 0 0 0 0 0 0 0 0
0 0 0 0 0 0 0 0 0 0 0 0 0 0 0 0 0 0 0 0 0 0 0 0 0 0 0 0 0 0 0 0 0 0 0 0 0 0 0 0 0 0 0 0 0 0 0 0 0
0 0 0 0 0 0 0 0 0 0 0 0 0 0 0 0 0 0 0 0 0 0 0 0 0 0 0 0 0 0 0 0 0 0 0 0 0 0 0 0 0 0 0 0 0 0 0 0 0
0 0 0 0 0 0 0 0 0 0 0 0 0 0 0 0 0 0 0 0 0 0 0 0 0 0 0 0 0 0 0 0 0 0 0 0 0 0 0 0 0 0 0 0 0 0 0 0 0
0 0 0 0 0 0 0 0 0 0 0 0 0 0 0 0 0 0 0 0 0 0 0 0 0 0 0 0 0 0 0 0 0 0 0 0 0 0 0 0 0 0 0 0 0 0 0 0 0
0 0 0 0 0 0 0 0 0 0 0 0 0 0 0 0 0 0 0 0 0 0 0 0 0 0 0 0 0 0 0 0 0 0 0 0 0 0 0 0 0 0 0 0 0 0 0 0 0
Wind_Speed
9 5 3 5 8 7 3 1 4 2 3 3 5 10 9 5 4 4 3 2 10 10 9 10 12 13 13 13 12 12 13 14 15 16 16 16 16 16 16 16 15 15 15 15 15 15 14 14 15
4 3 6 7 7 4 1 1 5 3 5 6 6 6 7 5 2 3 1 5 11 11 9 9 12 13 13 12 11 11 13 14 15 16 16 16 16 16 15 15 15 15 15 15 14 14 14 14 15
3 3 6 6 5 6 5 4 6 3 3 4 5 5 5 3 1 1 2 8 8 8 7 10 13 13 13 12 11 11 12 13 14 15 16 15 15 15 15 14 14 14 15 15 14 14 14 14 15
4 5 7 7 4 4 9 8 6 4 3 5 6 5 3 2 0 1 4 9 8 7 7 9 12 13 13 12 12 12 12 13 14 15 15 15 15 15 14 14 14 14 14 15 15 14 14 14 15
5 6 7 4 2 1 4 6 7 6 3 3 5 5 2 3 3 4 6 7 8 6 6 8 11 12 12 12 12 12 13 13 13 14 15 15 15 14 14 13 14 14 14 14 14 14 14 15 16
6 6 6 2 3 2 3 6 5 5 4 4 5 6 2 2 3 4 6 6 6 6 5 5 9 10 11 11 11 11 12 13 14 14 14 14 14 13 13 13 13 14 14 14 14 14 14 15 16
5 5 4 5 5 3 3 3 6 6 5 4 7 7 2 1 1 4 6 6 6 5 5 3 4 6 9 10 10 10 11 12 13 13 13 13 12 12 12 12 13 13 13 13 14 14 14 15 15
5 5 3 3 5 4 3 2 4 6 5 3 4 9 7 5 3 5 7 7 6 5 4 3 2 3 3 5 9 10 11 11 12 12 12 12 11 10 9 9 11 12 12 12 12 13 13 14 15
5 7 2 1 4 4 3 3 2 4 7 4 3 3 5 6 6 7 5 4 4 4 4 3 2 2 2 3 6 8 10 10 11 10 12 10 6 6 6 7 9 11 11 11 11 11 11 11 12
6 5 2 2 2 5 3 4 6 5 4 2 2 2 4 6 7 7 6 4 3 2 2 2 2 1 1 2 3 3 4 5 6 6 8 6 5 4 5 7 7 8 8 9 10 11 10 8 5
4 5 3 1 0 2 3 3 3 8 4 7 8 8 5 6 7 7 5 4 3 1 1 2 2 1 1 2 2 2 2 3 4 6 7 6 5 4 4 3 3 4 5 4 6 6 4 4 4
3 1 3 2 1 2 2 3 2 4 5 4 8 9 7 7 7 7 7 5 3 2 1 2 2 1 1 2 2 3 3 3 3 4 7 6 4 4 4 3 3 2 2 3 3 3 4 5 5
2 0 1 3 3 2 2 1 3 3 2 4 8 8 8 8 6 5 5 5 4 2 0 2 2 1 2 3 3 4 4 4 4 4 5 6 6 6 5 4 3 3 3 3 4 4 5 5 5
2 0 1 2 3 3 3 2 2 6 5 6 7 8 7 8 7 5 5 5 4 3 1 1 0 2 4 5 5 5 5 5 5 5 6 7 6 6 6 5 4 4 4 4 4 5 5 5 5
1 1 4 4 5 3 3 5 8 6 8 8 8 7 7 7 7 7 6 6 5 3 2 2 3 5 6 8 7 6 5 5 6 6 7 8 8 8 7 6 5 4 4 5 5 5 5 5 5
3 2 3 6 5 4 6 10 7 7 11 10 9 8 8 7 7 7 7 6 5 4 3 3 4 7 8 8 8 7 6 6 6 6 7 9 9 9 7 6 5 4 4 5 5 4 5 5 5
1 2 5 6 4 5 7 10 5 6 10 10 10 9 9 8 8 7 7 7 6 5 5 5 6 8 9 10 9 9 7 7 6 6 6 8 9 9 8 7 5 5 6 5 5 5 4 5 5
7 6 5 6 4 5 7 11 6 6 9 10 10 10 11 13 12 9 8 7 6 6 6 7 8 9 11 9 9 8 8 6 6 6 7 9 8 9 9 7 7 6 6 5 5 7 6 4 4
7 6 6 7 4 7 11 14 12 7 8 10 11 13 15 15 8 8 8 8 7 7 7 9 10 10 10 8 7 7 6 6 6 6 8 8 8 8 9 8 7 6 6 5 5 4 7 7 3
5 6 7 7 4 7 8 13 12 8 10 13 15 18 19 13 10 12 10 9 9 9 9 10 11 11 9 6 6 5 7 6 5 6 7 7 8 8 9 9 7 6 7 7 6 4 4 5 5
8 10 10 8 3 3 4 9 9 10 9 10 12 15 15 19 19 16 14 12 10 11 11 10 11 10 9 10 10 10 7 6 5 6 5 6 7 8 8 9 8 7 7 7 6 5 6 5 5
9 9 9 7 4 6 5 9 9 9 10 13 18 16 16 16 17 17 16 14 13 11 9 9 10 10 11 12 13 15 10 8 5 5 6 7 7 8 8 9 9 8 7 7 6 5 4 5 3
9 5 6 5 5 5 4 8 9 5 10 14 18 20 18 17 18 19 18 16 12 10 10 10 11 11 12 11 12 13 11 9 9 7 9 8 6 7 7 8 8 8 7 7 7 7 7 4 4
6 6 5 5 2 8 10 12 11 10 12 12 16 17 16 16 16 15 13 12 10 9 10 11 12 12 12 11 10 13 18 16 15 12 10 7 5 5 7 8 7 7 7 7 7 7 8 6 6
6 7 1 3 3 11 6 11 13 11 11 13 15 14 12 14 16 16 17 16 14 14 13 13 14 13 12 12 11 13 17 18 19 16 12 11 7 5 6 7 7 6 7 7 7 7 7 6 6
10 13 11 9 9 8 5 14 11 7 7 8 9 8 7 12 15 18 19 18 16 15 14 14 14 14 13 14 12 11 12 11 11 11 11 10 8 7 7 7 7 7 7 7 7 6 6 5 5
9 8 8 5 2 6 10 11 10 5 8 11 10 6 9 14 16 16 16 16 16 16 15 15 15 14 14 14 14 12 11 10 12 10 9 8 8 8 9 8 8 7 7 7 7 6 5 5 4
8 9 6 7 6 9 10 9 8 9 14 12 9 10 11 11 13 14 15 16 14 13 11 12 13 14 13 14 14 13 11 10 12 12 11 10 10 9 10 9 8 8 7 7 6 6 5 5 4
9 8 7 7 6 7 9 13 9 12 11 10 13 12 11 14 15 15 14 12 12 11 11 12 12 12 13 14 13 13 11 10 11 11 12 11 10 11 11 10 9 9 8 7 6 5 5 5 4
7 10 12 10 8 7 9 16 4 7 7 8 10 8 9 11 11 11 11 12 12 13 13 13 13 13 13 13 12 13 12 12 12 12 11 11 11 10 10 10 9 9 8 7 7 7 6 6 5
Wind_Direction
328 327 66 56 55 53 74 107 156 109 65 52 86 102 105 93 128 156 242 163 143 145 146 137 129 125 122 120 117 116 113 112 108 102 97 92 87 82 77 71 66 63 61 61 60 60 58 53 48
326 354 53 59 80 84 75 202 129 139 141 126 81 79 80 77 85 115 73 138 140 145 146 142 135 130 128 124 121 117 117 116 113 107 102 97 92 86 81 75 70 67 65 64 64 63 61 56 51
328 48 76 70 94 150 168 206 161 163 127 105 75 58 83 81 97 140 152 143 135 139 144 146 143 139 136 131 126 121 120 120 117 112 107 102 97 92 86 80 74 70 68 66 66 66 63 59 55
58 46 54 70 87 185 170 195 175 139 97 83 103 70 63 16 353 170 126 137 136 141 145 152 150 146 143 140 136 131 128 126 123 119 114 110 105 99 92 86 80 74 70 68 67 67 66 62 59
60 73 64 67 102 153 180 186 160 142 122 87 102 101 81 350 23 55 103 128 136 140 143 153 152 150 149 148 146 141 136 134 132 127 122 118 114 107 99 92 86 80 75 72 70 68 67 65 62
56 65 83 129 159 188 199 168 140 137 124 107 102 111 143 339 45 53 89 104 122 128 129 144 151 152 154 155 153 149 144 142 141 137 131 126 122 115 107 98 92 86 81 77 73 70 69 67 65
95 94 127 159 161 190 216 132 125 143 122 125 129 120 165 250 99 88 88 86 86 94 99 102 132 152 158 160 161 156 150 148 148 145 138 133 129 124 114 105 98 93 88 83 76 70 68 67 65
113 98 91 138 164 201 215 106 119 138 122 66 107 144 185 199 147 98 80 73 73 70 74 79 92 121 149 161 165 161 157 154 151 147 142 139 136 131 123 112 105 101 96 91 83 75 68 64 63
82 75 89 169 181 200 205 131 109 101 99 58 39 160 179 145 127 103 85 69 68 62 49 47 58 92 143 163 164 164 162 159 153 148 145 141 136 131 122 118 112 107 101 94 88 82 73 63 58
76 111 168 200 200 188 185 153 150 110 93 86 51 80 108 123 131 129 134 135 124 99 43 32 30 32 130 150 150 156 153 151 149 148 150 144 137 127 118 113 110 103 94 88 87 83 74 65 49
94 154 182 158 134 145 140 143 153 130 172 190 182 177 150 133 138 143 149 151 152 137 32 359 354 317 169 141 143 146 134 134 139 149 151 141 130 120 108 101 88 80 77 70 71 65 57 61 58
93 148 157 159 118 101 127 147 149 169 197 179 165 156 148 150 158 160 159 157 148 131 18 339 335 311 162 137 128 125 117 116 122 136 146 140 131 122 113 98 87 72 68 80 70 62 57 56 55
103 202 149 160 144 145 131 178 174 184 147 121 129 143 156 159 159 157 151 148 148 148 20 325 325 177 144 124 112 104 105 107 109 109 122 132 130 125 112 97 82 70 66 73 73 64 60 52 47
146 180 278 217 198 193 186 222 189 213 172 147 151 166 173 172 169 164 164 164 165 161 175 326 74 148 132 118 110 103 98 95 90 90 100 112 117 118 111 98 85 73 69 70 72 68 65 56 53
125 15 312 253 208 213 148 262 235 192 163 174 182 182 184 186 183 185 183 177 175 176 170 138 120 119 116 111 106 101 94 92 87 84 87 97 106 111 107 100 87 76 74 74 71 64 61 58 56
62 48 283 274 197 181 156 252 252 165 169 189 195 196 196 196 195 191 184 178 180 173 157 133 123 117 113 110 105 100 93 91 89 87 89 91 97 104 102 97 88 80 75 73 71 59 63 54 54
24 233 242 281 196 167 182 243 258 167 181 197 201 204 204 204 204 198 188 183 181 173 158 137 127 122 116 109 103 97 92 87 89 90 93 94 95 98 100 95 88 82 76 66 70 55 62 59 58
213 215 236 246 214 166 211 247 253 192 203 212 211 210 210 210 207 192 187 184 179 172 159 145 136 131 124 115 107 98 87 83 83 87 94 98 99 100 100 94 84 81 82 71 68 72 60 60 66
181 194 227 246 222 185 221 244 253 206 219 230 224 217 217 218 199 183 184 180 175 172 165 159 151 148 141 135 128 117 105 98 90 86 89 95 98 97 98 99 87 82 84 79 78 82 67 48 30
217 237 257 277 249 202 240 254 255 223 214 221 221 219 218 208 189 190 187 183 182 177 173 168 164 161 157 141 126 117 117 103 93 90 82 82 91 96 100 100 96 89 88 73 60 70 83 53 28
225 222 235 246 304 265 287 285 251 243 225 231 229 225 217 205 196 190 187 187 183 183 180 175 170 162 147 136 124 118 110 106 95 92 84 75 85 89 98 98 97 89 89 86 71 69 89 94 45
232 217 216 228 239 261 214 270 251 236 238 237 237 230 222 208 196 188 186 186 186 183 175 169 162 154 148 147 146 146 144 137 132 126 111 94 87 93 96 98 98 94 90 87 78 69 77 98 85
213 190 187 207 218 259 218 257 261 216 240 245 240 234 224 207 194 190 186 183 177 172 169 163 156 154 154 157 156 144 133 127 129 122 114 105 93 91 96 99 100 97 94 93 89 80 74 75 89
136 82 60 46 75 259 209 228 258 196 213 232 241 236 221 201 191 185 175 167 167 165 163 162 159 158 158 157 157 148 142 142 141 140 131 123 114 103 100 101 101 102 102 99 96 91 86 84 84
140 118 52 302 262 248 204 229 250 216 214 218 236 242 217 190 180 176 174 174 173 171 169 166 163 162 161 158 157 157 153 152 152 150 146 142 138 132 127 119 114 110 109 106 102 97 91 90 92
186 168 177 202 231 265 238 239 252 241 249 258 262 262 204 182 181 182 181 178 175 174 171 169 168 165 163 161 160 158 156 153 151 151 150 148 146 142 139 130 122 120 117 113 107 102 100 97 98
172 208 176 168 255 276 255 264 292 257 264 254 254 246 204 189 185 183 180 179 177 176 176 173 169 166 166 164 160 160 161 157 152 148 144 143 143 143 139 134 129 126 122 119 115 110 110 110 105
155 153 134 175 211 251 264 247 238 215 230 237 236 229 213 190 184 182 181 180 179 176 171 169 171 170 167 164 165 165 164 159 154 152 153 151 150 145 145 141 137 133 128 125 119 119 124 121 120
158 173 180 175 181 193 272 262 211 209 220 229 234 226 204 191 188 185 182 178 174 169 170 172 172 167 167 168 166 162 164 159 157 158 158 156 152 153 154 151 147 143 139 137 133 137 141 140 141
194 182 169 180 212 205 243 264 181 207 232 240 248 231 196 191 185 180 175 173 176 178 178 178 176 174 173 168 165 165 163 161 163 163 161 158 158 159 157 154 151 149 148 149 152 155 159 162 168